2019-096C (44907 NORAD) Tracking and Keplerian Element Data

This shows tracking and keplerian element data for the satellite.

Feedback or suggestion? Click here.




ElementValue
Catalog44907
Name2019-096C
Epoch Orbit1214
Epoch Day93.87604134
Epoch Year2020
RAAN49.7268
Inclination82.5207
Eccentricity0.0015881
Argument of Perigee102.8314
Mean Anonmoly257.4541
Mean Motion12.42325456
Decay Rate3.7E-07
L11 44907U 19096C 20093.87604134 .00000037 00000-0 19645-3 0 9994
L22 44907 82.5207 49.7268 0015881 102.8314 257.4541 12.42325456 12148

Live tracking and technical data element details for 2019-096C (NORAD 44907). 2019-096C can be tracked NOW for your location showing map with azimuth and elevation plus other details from your city location.

Track the satellite on the map from your city or location and see movement details for azimuth, elevation, latitude, longitude, range, height, and movement on the map or in text.







IsCatalogInMostPopularTable: catalog: 44907, numindb: 20
Update: records affected: 1



GetName: 44907 2019-096C

Hit Count: updated at: Fri, 10 Apr 2020 18:20:44 GMT